Weather History for KMVY - March, 2014

Change the Weather History Date:

Friday, March 28, 2014

  Actual Average Record
Temperature  
Mean Temperature 45 °F -  
Max Temperature 53 °F 49 °F 62 °F (1986)
Min Temperature 37 °F 32 °F 17 °F (1982)
Degree Days  
Heating Degree Days 20    
Moisture  
Dew Point 38 °F    
Average Humidity 77    
Maximum Humidity 93    
Minimum Humidity 64    
Precipitation  
Precipitation 0.10 in - - ()
Sea Level Pressure  
Sea Level Pressure 30.15 in    
Wind  
Wind Speed 14 mph (SW)    
Max Wind Speed 26 mph    
Max Gust Speed 38 mph    
Visibility 9 miles    
Events Rain    
Averages and records for this station are not official NWS values.
T = Trace of Precipitation, MM = Missing Value Source: NWS Daily Summary

Daily Weather History Graph

Daily Weather History Graph

Search for Another Location

Airport or City:

Trip Planner

Search our weather history database for the weather conditions in past years. The results will help you decide how hot, cold, wet, or windy it might be!

Date:

Astronomy

Mar. 28, 2014 Rise Set
Actual Time 6:32 AM EDT 7:03 PM EDT
Civil Twilight 6:04 AM EDT 7:31 PM EDT
Nautical Twilight 5:31 AM EDT 8:03 PM EDT
Astronomical Twilight 4:58 AM EDT 8:37 PM EDT
Moon 5:02 AM EDT (3/28) 4:55 PM EDT (3/28)
Length of Visible Light 13h 26m
Length of Day
12h 30m
Waning Crescent, 6% of the Moon is Illuminated
Mar 28
Waning Crescent
Mar 30
New
Apr 7
First Quarter
Apr 15
Full
Apr 22
Last Quarter

Hourly Weather History & Observations

Time (EDT) Temp. Windchill Dew Point Humidity Pressure Visibility Wind Dir Wind Speed Gust Speed Precip Events Conditions
12:53 AM 37.9 °F 30.5 °F 28.9 °F 70% 30.30 in 10.0 mi SW 11.5 mph - N/A   Clear
1:53 AM 37.9 °F 30.5 °F 30.0 °F 73% 30.30 in 10.0 mi SW 11.5 mph - N/A   Partly Cloudy
2:53 AM 39.0 °F 31.0 °F 30.9 °F 73% 30.27 in 10.0 mi SW 13.8 mph - N/A   Clear
3:53 AM 39.0 °F 31.0 °F 32.0 °F 76% 30.25 in 10.0 mi SSW 13.8 mph - N/A   Overcast
4:53 AM 37.0 °F 31.0 °F 32.0 °F 82% 30.23 in 10.0 mi SSW 8.1 mph - N/A   Clear
5:53 AM 39.0 °F 31.4 °F 33.1 °F 79% 30.22 in 10.0 mi SSW 12.7 mph - N/A   Clear
6:53 AM 39.9 °F 32.5 °F 35.1 °F 83% 30.22 in 10.0 mi SSW 12.7 mph - N/A   Clear
7:53 AM 43.0 °F 35.7 °F 37.0 °F 80% 30.22 in 10.0 mi SSW 15.0 mph 23.0 mph N/A   Clear
8:53 AM 46.9 °F - 37.9 °F 71% 30.20 in 10.0 mi SSW 13.8 mph 24.2 mph N/A   Clear
9:53 AM 46.9 °F - 37.9 °F 71% 30.18 in 10.0 mi SSW 11.5 mph 23.0 mph N/A   Scattered Clouds
10:53 AM 51.1 °F - 39.9 °F 66% 30.16 in 10.0 mi SSW 19.6 mph 27.6 mph N/A   Scattered Clouds
11:53 AM 53.1 °F - 41.0 °F 64% 30.14 in 10.0 mi SW 23.0 mph 34.5 mph N/A   Clear
12:53 PM 53.1 °F - 41.0 °F 64% 30.11 in 10.0 mi SW 26.5 mph 36.8 mph N/A   Clear
1:53 PM 52.0 °F - 41.0 °F 66% 30.09 in 10.0 mi SW 23.0 mph 38.0 mph N/A   Overcast
2:53 PM 51.1 °F - 41.0 °F 68% 30.06 in 10.0 mi SW 18.4 mph 25.3 mph N/A   Overcast
3:53 PM 48.9 °F - 39.9 °F 71% 30.06 in 10.0 mi SSW 18.4 mph 25.3 mph N/A   Partly Cloudy
4:53 PM 50.0 °F - 42.1 °F 74% 30.03 in 10.0 mi SSW 18.4 mph - N/A   Clear
5:53 PM 48.0 °F - 42.1 °F 80% 30.05 in 9.0 mi SW 15.0 mph 24.2 mph 0.00 in Rain Light Rain
6:53 PM 46.9 °F - 43.0 °F 86% 30.07 in 5.0 mi SSW 16.1 mph - 0.02 in Rain Light Rain
7:53 PM 46.9 °F - 43.0 °F 86% 30.09 in 5.0 mi SW 12.7 mph - 0.05 in Rain Light Rain
8:53 PM 45.0 °F 38.2 °F 42.1 °F 90% 30.08 in 6.0 mi SSW 15.0 mph - 0.03 in   Overcast
9:53 PM 46.0 °F 40.2 °F 43.0 °F 89% 30.08 in 7.0 mi SW 12.7 mph - N/A   Partly Cloudy
10:53 PM 46.0 °F 39.9 °F 43.0 °F 89% 30.08 in 7.0 mi SW 13.8 mph - N/A   Overcast
11:20 PM 45.0 °F 39.3 °F 42.1 °F 90% 30.08 in 6.0 mi SSW 11.5 mph - N/A   Overcast
11:53 PM 44.1 °F 38.6 °F 42.1 °F 93% 30.08 in 5.0 mi SW 10.4 mph - N/A   Overcast